Weather Roundup
Issued by NWS Springfield, MO

Home | Current Version | Previous Version | Text Only | Print | Product List | Glossary On
Versions: 1 2 3 4 5 6 7 8 9 10 11 12 13 14 15 16 17 18 19 20 21 22 23 24 25 26 27 28 29 30 31 32 33 34 35 36 37 38 39 40 41 42 43 44 45 46 47 48 49 50
214
NZUS99 KSGF 220107
HRRSGF

HOURLY WEATHER
NATIONAL WEATHER SERVICE SPRINGFIELD MO
800 PM CDT THU SEP 21 2017

......SGF CWA......

CITY           SKY/WX    TMP DP  RH WIND       PRES   REMARKS
SPRINGFIELD    CLEAR     83  67  58 S10       29.94R
JOPLIN         CLEAR     81  72  74 S8        29.91R
WEST PLAINS    CLEAR     83  67  58 S6        30.01R
ROLLA          CLEAR     80  67  64 SE7       29.98R
OSAGE BEACH    CLEAR     82  69  64 SE3       29.94S
BRANSON        PTCLDY    82  66  57 S7        29.99R

......SURROUNDING SGF CWA......

CITY           SKY/WX    TMP DP  RH WIND       PRES   REMARKS
CHANUTE        CLEAR     82  72  71 SE9       29.87R
COFFEYVILLE    CLEAR     84  72  67 S10       29.85S
EMPORIA        CLEAR     84  70  62 S17G26    29.82R
GROVE OK       CLEAR     82  72  69 SE5       29.92R
ROGERS AR      CLEAR     79  70  74 SE6       29.97R
SILOAM SPRINGS CLEAR     79  69  71 SE6       29.95R
HARRISON AR    CLEAR     78  68  71 S7        29.99R
NEAR YELLVILLE CLEAR     83  67  58 CALM      29.96R

......KANSAS AND MISSOURI......

CITY           SKY/WX    TMP DP  RH WIND       PRES   REMARKS
KANSAS CTY INT PTCLDY    83  73  72 S14       29.85R
DOWNTOWN KC    CLEAR     88  73  61 S14       29.84R HX  95
COLUMBIA       CLEAR     83  70  64 SE6       29.94R
SEDALIA        CLEAR     82  72  71 SE8       29.91S
ST JOSEPH      CLEAR     84  74  71 S12       29.82R HX  91
ST LOUIS       MOCLDY    85  68  56 SE10      29.96R
SPIRIT OF STL  CLOUDY    83  71  67 SE5       29.94R
KIRKSVILLE     CLEAR     77  68  73 S7        29.91S
WICHITA        PTCLDY    87  73  62 S16       29.79R HX  94
TOPEKA         CLEAR     85  75  72 SE14      29.81R HX  93
OLATHE         CLEAR     82  74  76 S12       29.87R

......TENNESSEE......

CITY           SKY/WX    TMP DP  RH WIND       PRES   REMARKS
MEMPHIS        PTCLDY    82  71  69 CALM      29.97S
NASHVILLE      PTCLDY    75  71  87 CALM      30.03R

......ARKANSAS.......

CITY           SKY/WX    TMP DP  RH WIND       PRES   REMARKS
FAYETTEVILLE   CLEAR     76  72  87 CALM      29.96R
FT SMITH       CLEAR     85  70  60 S5        29.91R
LITTLE ROCK    CLEAR     81  73  76 S5        29.96R

......OKLAHOMA.......

CITY           SKY/WX    TMP DP  RH WIND       PRES   REMARKS
TULSA          PTCLDY    88  70  55 S12       29.85R HX  93
PONCA CITY     CLEAR     87  71  58 S18G28    29.81S HX  93
MCALESTER      CLEAR     85  70  60 VRB5      29.90R
OKLAHOMA CITY  PTCLDY    84  70  62 SE15      29.85R

......IOWA............

CITY           SKY/WX    TMP DP  RH WIND       PRES   REMARKS
DES MOINES     PTCLDY    84  70  62 SE15      29.83R
QUAD CITIES    PTCLDY    79  70  74 S7        29.93S

......ILLINOIS........

CITY           SKY/WX    TMP DP  RH WIND       PRES   REMARKS
QUINCY         CLEAR     80  70  71 SE7       29.94S
CHICAGO        PTCLDY    85  69  58 S7        29.99R




USA.gov is the U.S. government's official web portal to all federal, state and local government web resources and services.